When you browse on this site, cookies collect data to enhance your experience and personalize the content and advertising you see.
Visit our Privacy Policy to learn more. By continuing to use the site, you agree to this use of cookies and data.
  • Em Portugal
  • Lista de países
  • Para 7 dias
  • Temperatura da água
  • Mapas de satélite
  • Mapa do tempo
  • Widgets de tempo
  • user-avatar
    Iniciar Sessão

    Previsão horária em Darvin

    Hoje, 20 Julho, Sábado

    Tempo Temperatura Precipitação Vento Pressão Humidade
    00:00 +20°C° 0 mm 2 m/s 760 mmHg 87%
    01:00 +19°C° 0 mm 2 m/s 760 mmHg 89%
    02:00 +19°C° 0 mm 3 m/s 760 mmHg 90%
    03:00 +19°C° 0 mm 3 m/s 760 mmHg 88%
    04:00 +18°C° 0 mm 3 m/s 760 mmHg 90%
    05:00 +18°C° 0 mm 3 m/s 760 mmHg 92%
    06:00 +18°C° 0 mm 2 m/s 760 mmHg 94%
    07:00 +20°C° 0 mm 3 m/s 761 mmHg 82%
    08:00 +22°C° 0 mm 3 m/s 761 mmHg 71%
    09:00 +26°C° 0 mm 3 m/s 761 mmHg 59%
    10:00 +28°C° 0 mm 3 m/s 761 mmHg 47%
    11:00 +31°C° 0 mm 3 m/s 760 mmHg 35%
    12:00 +35°C° 0 mm 3 m/s 760 mmHg 22%
    13:00 +36°C° 0 mm 3 m/s 759 mmHg 21%
    14:00 +37°C° 0 mm 3 m/s 758 mmHg 19%
    15:00 +37°C° 0 mm 4 m/s 758 mmHg 17%
    16:00 +34°C° 0 mm 3 m/s 757 mmHg 28%
    17:00 +29°C° 0 mm 3 m/s 757 mmHg 40%
    18:00 +26°C° 0 mm 3 m/s 757 mmHg 51%
    19:00 +24°C° 0 mm 2 m/s 758 mmHg 57%
    20:00 +21°C° 0 mm 2 m/s 759 mmHg 63%
    21:00 +20°C° 0 mm 2 m/s 759 mmHg 69%
    22:00 +19°C° 0 mm 2 m/s 760 mmHg 76%
    23:00 +19°C° 0 mm 2 m/s 760 mmHg 82%

    Amanhã, 21 Julho, Domingo

    Tempo Temperatura Precipitação Vento Pressão Humidade
    00:00 +19°C° 0 mm 2 m/s 760 mmHg 88%
    01:00 +19°C° 0 mm 3 m/s 760 mmHg 91%
    02:00 +19°C° 0 mm 3 m/s 759 mmHg 93%
    03:00 +19°C° 0 mm 4 m/s 759 mmHg 95%
    04:00 +19°C° 0 mm 4 m/s 759 mmHg 96%
    05:00 +19°C° 0 mm 4 m/s 759 mmHg 96%
    06:00 +18°C° 0 mm 4 m/s 759 mmHg 97%
    07:00 +20°C° 0 mm 4 m/s 760 mmHg 86%
    08:00 +22°C° 0 mm 4 m/s 760 mmHg 75%
    09:00 +25°C° 0 mm 4 m/s 760 mmHg 64%
    10:00 +28°C° 0 mm 4 m/s 760 mmHg 49%
    11:00 +30°C° 0 mm 3 m/s 759 mmHg 35%
    12:00 +34°C° 0 mm 3 m/s 759 mmHg 20%
    13:00 +35°C° 0 mm 3 m/s 758 mmHg 19%
    14:00 +36°C° 0 mm 4 m/s 757 mmHg 18%
    15:00 +37°C° 0 mm 4 m/s 756 mmHg 17%
    16:00 +34°C° 0 mm 4 m/s 756 mmHg 28%
    17:00 +29°C° 0 mm 3 m/s 756 mmHg 40%
    18:00 +26°C° 0 mm 3 m/s 756 mmHg 51%
    19:00 +24°C° 0 mm 2 m/s 757 mmHg 58%
    20:00 +23°C° 0 mm 2 m/s 758 mmHg 65%
    21:00 +20°C° 0 mm 2 m/s 758 mmHg 72%
    22:00 +19°C° 0 mm 2 m/s 759 mmHg 76%
    23:00 +20°C° 0 mm 1 m/s 759 mmHg 80%

    Depois de amanhã, 22 Julho, Segunda-feira

    Tempo Temperatura Precipitação Vento Pressão Humidade
    00:00 +19°C° 0 mm 1 m/s 759 mmHg 84%
    01:00 +19°C° 0 mm 1 m/s 759 mmHg 85%
    02:00 +18°C° 0 mm 2 m/s 759 mmHg 87%
    03:00 +18°C° 0 mm 2 m/s 759 mmHg 88%
    04:00 +18°C° 0 mm 2 m/s 759 mmHg 90%
    05:00 +18°C° 0 mm 2 m/s 759 mmHg 91%
    06:00 +18°C° 0 mm 2 m/s 759 mmHg 93%
    07:00 +20°C° 0 mm 3 m/s 759 mmHg 84%
    08:00 +22°C° 0 mm 3 m/s 760 mmHg 74%
    09:00 +25°C° 0 mm 3 m/s 760 mmHg 65%
    10:00 +28°C° 0 mm 3 m/s 760 mmHg 50%
    11:00 +30°C° 0 mm 3 m/s 759 mmHg 35%
    12:00 +34°C° 0 mm 2 m/s 759 mmHg 21%
    13:00 +35°C° 0 mm 3 m/s 758 mmHg 19%
    14:00 +35°C° 0 mm 3 m/s 757 mmHg 18%
    15:00 +36°C° 0 mm 4 m/s 756 mmHg 16%
    16:00 +32°C° 0 mm 4 m/s 756 mmHg 27%
    17:00 +28°C° 0 mm 3 m/s 757 mmHg 38%
    18:00 +25°C° 0 mm 3 m/s 757 mmHg 49%
    19:00 +23°C° 0 mm 2 m/s 757 mmHg 56%
    20:00 +21°C° 0 mm 2 m/s 758 mmHg 64%
    21:00 +19°C° 0 mm 2 m/s 759 mmHg 72%
    22:00 +20°C° 0 mm 1 m/s 759 mmHg 74%
    23:00 +19°C° 0 mm 1 m/s 759 mmHg 76%

    23 Julho, Terça-feira

    Tempo Temperatura Precipitação Vento Pressão Humidade
    00:00 +19°C° 0 mm 1 m/s 759 mmHg 78%
    01:00 +18°C° 0 mm 2 m/s 759 mmHg 78%
    02:00 +17°C° 0 mm 2 m/s 759 mmHg 77%
    03:00 +17°C° 0 mm 2 m/s 759 mmHg 77%
    04:00 +17°C° 0 mm 2 m/s 759 mmHg 80%
    05:00 +17°C° 0 mm 2 m/s 759 mmHg 83%
    06:00 +16°C° 0 mm 3 m/s 760 mmHg 86%
    07:00 +19°C° 0 mm 3 m/s 760 mmHg 74%
    08:00 +21°C° 0 mm 3 m/s 760 mmHg 61%
    09:00 +25°C° 0 mm 4 m/s 761 mmHg 48%
    10:00 +27°C° 0 mm 4 m/s 760 mmHg 38%
    11:00 +30°C° 0 mm 4 m/s 760 mmHg 28%
    12:00 +34°C° 0 mm 4 m/s 759 mmHg 17%
    13:00 +35°C° 0 mm 4 m/s 759 mmHg 17%
    14:00 +36°C° 0 mm 3 m/s 758 mmHg 16%
    15:00 +36°C° 0 mm 3 m/s 757 mmHg 16%
    16:00 +34°C° 0 mm 3 m/s 757 mmHg 24%
    17:00 +30°C° 0 mm 2 m/s 758 mmHg 32%
    18:00 +27°C° 0 mm 2 m/s 758 mmHg 40%
    19:00 +25°C° 0 mm 2 m/s 759 mmHg 47%
    20:00 +23°C° 0 mm 2 m/s 759 mmHg 55%
    21:00 +21°C° 0 mm 1 m/s 760 mmHg 63%
    22:00 +20°C° 0 mm 2 m/s 760 mmHg 62%
    23:00 +20°C° 0 mm 2 m/s 761 mmHg 61%

    24 Julho, Quarta-feira

    Tempo Temperatura Precipitação Vento Pressão Humidade
    00:00 +19°C° 0 mm 2 m/s 761 mmHg 61%
    01:00 +19°C° 0 mm 2 m/s 760 mmHg 58%
    02:00 +18°C° 0 mm 2 m/s 760 mmHg 55%
    03:00 +18°C° 0 mm 3 m/s 760 mmHg 52%
    04:00 +17°C° 0 mm 3 m/s 760 mmHg 53%
    05:00 +17°C° 0 mm 4 m/s 760 mmHg 54%
    06:00 +15°C° 0 mm 5 m/s 760 mmHg 55%
    07:00 +19°C° 0 mm 6 m/s 761 mmHg 47%
    08:00 +22°C° 0 mm 6 m/s 761 mmHg 39%
    09:00 +26°C° 0 mm 7 m/s 761 mmHg 31%
    10:00 +28°C° 0 mm 7 m/s 761 mmHg 28%
    11:00 +30°C° 0 mm 6 m/s 760 mmHg 25%
    12:00 +34°C° 0 mm 5 m/s 760 mmHg 22%
    13:00 +35°C° 0 mm 5 m/s 759 mmHg 22%
    14:00 +35°C° 0 mm 5 m/s 758 mmHg 21%
    15:00 +36°C° 0 mm 5 m/s 758 mmHg 21%
    16:00 +34°C° 0 mm 4 m/s 758 mmHg 28%
    17:00 +30°C° 0 mm 3 m/s 758 mmHg 34%
    18:00 +28°C° 0 mm 2 m/s 758 mmHg 40%
    19:00 +26°C° 0 mm 2 m/s 759 mmHg 45%
    20:00 +25°C° 0 mm 2 m/s 760 mmHg 49%
    21:00 +23°C° 0 mm 1 m/s 761 mmHg 53%
    22:00 +23°C° 0 mm 2 m/s 761 mmHg 52%
    23:00 +21°C° 0 mm 2 m/s 761 mmHg 52%

    25 Julho, Quinta-feira

    Tempo Temperatura Precipitação Vento Pressão Humidade
    00:00 +20°C° 0 mm 3 m/s 761 mmHg 51%
    01:00 +20°C° 0 mm 3 m/s 761 mmHg 52%
    02:00 +19°C° 0 mm 3 m/s 761 mmHg 53%
    03:00 +19°C° 0 mm 3 m/s 761 mmHg 54%
    04:00 +19°C° 0 mm 3 m/s 761 mmHg 55%
    05:00 +18°C° 0 mm 3 m/s 761 mmHg 56%
    06:00 +17°C° 0 mm 4 m/s 762 mmHg 58%
    07:00 +20°C° 0 mm 4 m/s 762 mmHg 52%
    08:00 +22°C° 0 mm 4 m/s 762 mmHg 47%
    09:00 +25°C° 0 mm 4 m/s 763 mmHg 41%
    10:00 +28°C° 0 mm 4 m/s 762 mmHg 37%
    11:00 +30°C° 0 mm 3 m/s 762 mmHg 33%
    12:00 +34°C° 0 mm 3 m/s 761 mmHg 29%
    13:00 +34°C° 0 mm 3 m/s 760 mmHg 29%
    14:00 +35°C° 0 mm 2 m/s 759 mmHg 29%
    15:00 +35°C° 0 mm 2 m/s 759 mmHg 29%
    16:00 +32°C° 0 mm 2 m/s 759 mmHg 35%
    17:00 +30°C° 0 mm 1 m/s 759 mmHg 41%
    18:00 +28°C° 0 mm 1 m/s 759 mmHg 47%
    19:00 +26°C° 0 mm 1 m/s 759 mmHg 51%
    20:00 +25°C° 0 mm 1 m/s 760 mmHg 55%
    21:00 +23°C° 0 mm 2 m/s 760 mmHg 59%
    22:00 +23°C° 0 mm 2 m/s 760 mmHg 54%
    23:00 +22°C° 0 mm 3 m/s 760 mmHg 49%
    Mostrar mais